Regional Weather Roundup
Issued by NWS

Home | Current Version | Previous Version | Text Only | Print | Product List | Glossary On
Versions: 1 2 3 4 5 6 7 8 9 10 11 12 13 14 15 16 17 18 19 20 21 22 23 24 25 26 27 28 29 30 31 32 33 34 35 36 37 38 39 40 41 42 43 44 45 46 47 48 49 50
000
ASUS46 KSEW 051710
RWRWA

WASHINGTON REGIONAL WEATHER ROUNDUP
NATIONAL WEATHER SERVICE SEATTLE WA
1000 AM PDT TUE MAY 05 2015

NOTE:"FAIR" INDICATES FEW OR NO CLOUDS BELOW 12,000 FEET WITH NO
SIGNIFICANT WEATHER AND/OR OBSTRUCTIONS TO VISIBILITY.

WAZ505-507>509-051800-
SEATTLE, TACOMA, EVERETT, AND VICINITY

CITY           SKY/WX    TMP DP  RH WIND       PRES   REMARKS
EVERETT        LGT RAIN  46  42  86 SW13      30.04R
BOEING FIELD   PTSUNNY   55  42  61 S13G24    30.05R
RENTON         PTSUNNY   52  40  63 S13G20    30.05R
SEATAC AIRPORT MOSUNNY   52  43  71 SW16      30.05R
JBLM-MCCHORD   NOT AVBL
PUYALLUP       FAIR      52  45  76 SW8G18    30.07R
BREMERTON      PTSUNNY   52  45  76 S14G22    30.06R
JBLM-FT LEWIS  NOT AVBL
TACOMA NARROWS PTSUNNY   50  42  74 S12G21    30.06R
$$

WAZ001-503-506-510-514-515-051800-
NORTH INTERIOR

CITY           SKY/WX    TMP DP  RH WIND       PRES   REMARKS
BELLINGHAM     LGT RAIN  48  44  86 SE9       30.01R
FRIDAY HARBOR  CLOUDY    49  44  83 SW10      30.02R
EASTSOUND      CLOUDY    50  45  81 S5        29.99R
PORT ANGELES   MOSUNNY   51  43  74 W9        30.02R
NAS WHIDBEY    CLOUDY    51  46  83 E5        30.04R
ARLINGTON      CLOUDY    46  39  76 W12       30.05R
BURLINGTON     PTSUNNY   45  43  93 E6        30.04R
$$

WAZ020-022-039-040-504-511-512-051800-
SOUTHWEST INTERIOR

CITY           SKY/WX    TMP DP  RH WIND       PRES   REMARKS
SHELTON        CLOUDY    51  43  74 SW16      30.03R
OLYMPIA        MOSUNNY   51  43  74 SW8       30.06S
CHEHALIS       FAIR      54  45  71 S6        30.08R
KELSO          PTSUNNY   54  43  66 S7        30.14S
VANCOUVER      CLOUDY    54  41  61 SW6       30.11S
SCAPPOOSE, OR  PTSUNNY   56  44  64 S8        30.09S
PORTLAND, OR   PTSUNNY   54  42  64 SW7       30.12R
$$

WAZ021-516-517-051800-
WASHINGTON COAST

CITY           SKY/WX    TMP DP  RH WIND       PRES   REMARKS
FORKS          MOSUNNY   49  47  93 E5        30.03S
HOQUIAM        PTSUNNY   51  44  77 W10       30.06R
ASTORIA, OR    PTSUNNY   55  43  63 W10       30.09R
$$

WAZ019-023-024-040-518-519-051800-
CASCADE MOUNTAINS AND COLUMBIA GORGE

CITY           SKY/WX    TMP DP  RH WIND       PRES   REMARKS
TROUTDALE, OR  CLOUDY    55  41  59 VRB5      30.10S
THE DALLES, OR SUNNY     58  41  53 NW16      30.06R
$$

WAZ026-027-041>044-520-521-051800-
EAST SLOPES

CITY           SKY/WX    TMP DP  RH WIND       PRES   REMARKS
OMAK           SUNNY     59  26  28 E6        29.87S
WENATCHEE      SUNNY     59  25  27 W20       29.93R
ELLENSBURG     PTSUNNY   54  32  43 NW13      29.97R
YAKIMA         MOSUNNY   60  30  32 VRB6      29.98S
$$

WAZ028-034-035-051800-
COLUMBIA BASIN

CITY           SKY/WX    TMP DP  RH WIND       PRES   REMARKS
EPHRATA        SUNNY     59  29  31 SW16      29.93S
MOSES LAKE     SUNNY     58  31  35 SW17      29.96R
PASCO          SUNNY     60  34  37 SW15      30.02S
HERMISTON, OR  SUNNY     58  36  43 W17       30.04R
$$

WAZ036>038-051800-
NORTHEAST WASHINGTON

CITY           SKY/WX    TMP DP  RH WIND       PRES   REMARKS
SPOKANE GEIGER MOSUNNY   52  31  44 SW17      29.94R
SPOKANE FELTS  MOSUNNY   56  31  38 SW15      29.96R
FAIRCHILD AFB  NOT AVBL
COEURDALENE,ID CLOUDY    52  34  50 S7        29.97R
DEER PARK      SUNNY     55  34  45 S16G22    29.93S
$$

WAZ029>033-051800-
SOUTHEAST WASHINGTON

CITY           SKY/WX    TMP DP  RH WIND       PRES   REMARKS
PULLMAN        CLOUDY    49  33  54 W12G21    30.01R
LEWISTON, ID   PTSUNNY   62  33  33 NW9       29.97S
WALLA WALLA    MOSUNNY   57  32  38 SW20      30.03R
PENDLETON, OR  MOSUNNY   54  35  48 W13       30.04R
$$


USA.gov is the U.S. government's official web portal to all federal, state and local government web resources and services.